Location: Unspecified
(0.0000°N, 0.0000°E)
Time: 10:46:01
(UTC+00:00)

Explorer 11/Cluster Stage 4 - Pass Details

Date: 01 November 2024
Orbit: 464 x 1202 km, 28.8° (Epoch: 05 December)

Event Time Altitude Azimuth Distance (km) Brightness Sun altitude
Exits shadow 04:52:05 - 228° (SW) 2,377 8.7 -12.5°
Reaches altitude 10° 04:53:45 10° 222° (SW) 1,714 8.1 -12.1°
Maximum altitude 04:57:24 41° 151° (SSE) 694 6.7 -11.2°
Drops below altitude 10° 05:00:49 10° 79° (ENE) 1,598 9.3 -10.3°
Sets 05:03:01 0° 71° (ENE) 2,475 10.2 -9.8°
